Time,TemperatureF,DewpointF,PressureIn,WindDirection,WindDirectionDegrees,WindSpeedMPH,WindSpeedGustMPH,Humidity,HourlyPrecipIn,Conditions,Clouds,dailyrainin,SoftwareType,DateUTC
2013-03-08 00:00:00,28.0,28.0,31.11,WNW,292,0.0,0.0,100,0.00,,,0.00,Weather View 32 v70,2013-03-08 05:00:00,
2013-03-08 00:04:00,28.0,28.0,31.16,WNW,292,0.0,0.0,100,0.00,,,0.00,Weather View 32 v70,2013-03-08 05:04:00,
2013-03-08 00:09:00,28.0,28.0,31.16,WNW,292,0.0,0.0,100,0.00,,,0.00,Weather View 32 v70,2013-03-08 05:09:00,
2013-03-08 00:14:00,28.0,28.0,31.23,WNW,292,0.0,0.0,100,0.00,,,0.00,Weather View 32 v70,2013-03-08 05:14:00,
2013-03-08 00:19:00,28.0,28.0,31.23,WNW,292,0.0,0.0,100,0.00,,,0.00,Weather View 32 v70,2013-03-08 05:19:00,
2013-03-08 00:24:00,28.0,28.0,31.32,WNW,292,0.0,0.0,100,0.00,,,0.00,Weather View 32 v70,2013-03-08 05:24:00,
2013-03-08 00:29:00,28.0,28.0,31.32,WNW,292,0.0,0.0,100,0.00,,,0.00,Weather View 32 v70,2013-03-08 05:29:00,
2013-03-08 00:34:00,28.0,28.0,31.41,NNW,337,0.0,0.0,100,0.00,,,0.00,Weather View 32 v70,2013-03-08 05:34:00,
2013-03-08 00:39:00,28.0,28.0,31.41,NNW,337,0.0,0.0,100,0.00,,,0.00,Weather View 32 v70,2013-03-08 05:39:00,
2013-03-08 00:44:00,28.0,28.0,31.52,NNW,337,0.0,0.0,100,0.00,,,0.00,Weather View 32 v70,2013-03-08 05:44:00,
2013-03-08 00:49:00,28.0,28.0,31.52,NNW,337,0.0,0.0,100,0.00,,,0.00,Weather View 32 v70,2013-03-08 05:49:00,
2013-03-08 00:54:00,27.0,27.0,31.62,NNW,337,0.0,0.0,100,0.00,,,0.00,Weather View 32 v70,2013-03-08 05:54:00,
2013-03-08 00:59:00,27.0,27.0,31.62,NNW,337,0.0,0.0,100,0.00,,,0.00,Weather View 32 v70,2013-03-08 05:59:00,
2013-03-08 01:04:00,26.0,26.0,31.72,NNW,337,0.0,0.0,100,0.00,,,0.00,Weather View 32 v70,2013-03-08 06:04:00,
2013-03-08 01:09:00,25.0,24.8,31.72,NNW,337,0.0,0.0,99,0.00,,,0.00,Weather View 32 v70,2013-03-08 06:09:00,
2013-03-08 01:14:00,25.0,24.3,31.83,NNW,337,0.0,0.0,97,0.00,,,0.00,Weather View 32 v70,2013-03-08 06:14:00,
2013-03-08 01:19:00,24.0,23.0,31.83,NNW,337,0.0,0.0,96,0.00,,,0.00,Weather View 32 v70,2013-03-08 06:19:00,
2013-03-08 01:24:00,24.0,22.5,31.94,NNW,337,0.0,0.0,94,0.00,,,0.00,Weather View 32 v70,2013-03-08 06:24:00,
2013-03-08 01:29:00,24.0,22.3,31.94,NNW,337,0.0,0.0,93,0.00,,,0.00,Weather View 32 v70,2013-03-08 06:29:00,
2013-03-08 01:34:00,24.0,21.8,31.94,NNW,337,0.0,0.0,91,0.00,,,0.00,Weather View 32 v70,2013-03-08 06:34:00,
2013-03-08 01:39:00,24.0,21.5,31.94,NNW,337,0.0,0.0,90,0.00,,,0.00,Weather View 32 v70,2013-03-08 06:39:00,
2013-03-08 01:44:00,24.0,21.2,31.92,NNW,337,0.0,0.0,89,0.00,,,0.00,Weather View 32 v70,2013-03-08 06:44:00,
2013-03-08 01:49:00,24.0,21.0,31.92,NNW,337,0.0,0.0,88,0.00,,,0.00,Weather View 32 v70,2013-03-08 06:49:00,
2013-03-08 01:54:00,25.0,21.7,31.91,NNW,337,0.0,0.0,87,0.00,,,0.00,Weather View 32 v70,2013-03-08 06:54:00,
2013-03-08 01:59:00,24.0,20.4,31.91,NNW,337,0.0,0.0,86,0.00,,,0.00,Weather View 32 v70,2013-03-08 06:59:00,
2013-03-08 02:04:00,24.0,20.4,31.90,NNW,337,0.0,0.0,86,0.00,,,0.00,Weather View 32 v70,2013-03-08 07:04:00,
2013-03-08 02:09:00,24.0,20.1,31.90,NNW,337,0.0,0.0,85,0.00,,,0.00,Weather View 32 v70,2013-03-08 07:09:00,
2013-03-08 02:14:00,24.0,20.1,31.89,NNW,337,0.0,0.0,85,0.00,,,0.00,Weather View 32 v70,2013-03-08 07:14:00,
2013-03-08 02:19:00,23.0,19.2,31.89,NNW,337,0.0,0.0,85,0.00,,,0.00,Weather View 32 v70,2013-03-08 07:19:00,
2013-03-08 02:24:00,24.0,19.9,31.89,NNW,337,0.0,0.0,84,0.00,,,0.00,Weather View 32 v70,2013-03-08 07:24:00,
2013-03-08 02:29:00,24.0,19.6,31.89,NNW,337,0.0,0.0,83,0.00,,,0.00,Weather View 32 v70,2013-03-08 07:29:00,
2013-03-08 02:34:00,23.0,19.2,31.88,NNW,337,0.0,0.0,85,0.00,,,0.00,Weather View 32 v70,2013-03-08 07:34:00,
2013-03-08 02:39:00,23.0,18.9,31.88,NNW,337,0.0,0.0,84,0.00,,,0.00,Weather View 32 v70,2013-03-08 07:39:00,
2013-03-08 02:44:00,23.0,19.2,31.88,NNW,337,0.0,0.0,85,0.00,,,0.00,Weather View 32 v70,2013-03-08 07:44:00,
2013-03-08 02:49:00,23.0,18.9,31.88,NNW,337,0.0,0.0,84,0.00,,,0.00,Weather View 32 v70,2013-03-08 07:49:00,
2013-03-08 02:54:00,23.0,19.2,31.88,NNW,337,0.0,0.0,85,0.00,,,0.00,Weather View 32 v70,2013-03-08 07:54:00,
2013-03-08 02:59:00,23.0,19.2,31.88,NNW,337,0.0,0.0,85,0.00,,,0.00,Weather View 32 v70,2013-03-08 07:59:00,
2013-03-08 03:04:00,23.0,19.2,31.88,NNW,337,0.0,0.0,85,0.00,,,0.00,Weather View 32 v70,2013-03-08 08:04:00,
2013-03-08 03:09:00,22.0,18.2,31.88,NNW,337,0.0,0.0,85,0.00,,,0.00,Weather View 32 v70,2013-03-08 08:09:00,
2013-03-08 03:14:00,22.0,18.2,31.88,NNW,337,0.0,0.0,85,0.00,,,0.00,Weather View 32 v70,2013-03-08 08:14:00,
2013-03-08 03:19:00,22.0,18.2,31.88,NNW,337,0.0,0.0,85,0.00,,,0.00,Weather View 32 v70,2013-03-08 08:19:00,
2013-03-08 03:24:00,22.0,18.5,31.87,NNW,337,0.0,0.0,86,0.00,,,0.00,Weather View 32 v70,2013-03-08 08:24:00,
2013-03-08 03:29:00,22.0,18.2,31.87,NNW,337,0.0,0.0,85,0.00,,,0.00,Weather View 32 v70,2013-03-08 08:29:00,
2013-03-08 03:34:00,22.0,18.5,31.88,NNW,337,0.0,0.0,86,0.00,,,0.00,Weather View 32 v70,2013-03-08 08:34:00,
2013-03-08 03:39:00,22.0,18.2,31.88,NNW,337,0.0,0.0,85,0.00,,,0.00,Weather View 32 v70,2013-03-08 08:39:00,
2013-03-08 03:44:00,22.0,18.5,31.88,NNW,337,0.0,0.0,86,0.00,,,0.00,Weather View 32 v70,2013-03-08 08:44:00,
2013-03-08 03:49:00,22.0,18.2,31.88,NNW,337,0.0,0.0,85,0.00,,,0.00,Weather View 32 v70,2013-03-08 08:49:00,
2013-03-08 03:54:00,22.0,18.5,31.88,NNW,337,0.0,0.0,86,0.00,,,0.00,Weather View 32 v70,2013-03-08 08:54:00,
2013-03-08 03:59:00,21.0,17.5,31.88,NNW,337,0.0,0.0,86,0.00,,,0.00,Weather View 32 v70,2013-03-08 08:59:00,
2013-03-08 04:04:00,22.0,18.5,31.88,NNW,337,0.0,0.0,86,0.00,,,0.00,Weather View 32 v70,2013-03-08 09:04:00,
2013-03-08 04:09:00,22.0,18.2,31.88,NNW,337,0.0,0.0,85,0.00,,,0.00,Weather View 32 v70,2013-03-08 09:09:00,
2013-03-08 04:14:00,22.0,18.5,31.88,NNW,337,0.0,0.0,86,0.00,,,0.00,Weather View 32 v70,2013-03-08 09:14:00,
2013-03-08 04:19:00,22.0,18.2,31.88,NNW,337,0.0,0.0,85,0.00,,,0.00,Weather View 32 v70,2013-03-08 09:19:00,
2013-03-08 04:24:00,22.0,18.7,31.88,NNW,337,0.0,0.0,87,0.00,,,0.00,Weather View 32 v70,2013-03-08 09:24:00,
2013-03-08 04:29:00,22.0,18.5,31.88,NNW,337,0.0,0.0,86,0.00,,,0.00,Weather View 32 v70,2013-03-08 09:29:00,
2013-03-08 04:34:00,22.0,18.7,31.88,NNW,337,0.0,0.0,87,0.00,,,0.00,Weather View 32 v70,2013-03-08 09:34:00,
2013-03-08 04:39:00,21.0,17.7,31.88,NNW,337,0.0,0.0,87,0.00,,,0.00,Weather View 32 v70,2013-03-08 09:39:00,
2013-03-08 04:44:00,21.0,18.0,31.88,NNW,337,0.0,0.0,88,0.00,,,0.00,Weather View 32 v70,2013-03-08 09:44:00,
2013-03-08 04:49:00,20.0,16.8,31.88,NNW,337,0.0,0.0,87,0.00,,,0.00,Weather View 32 v70,2013-03-08 09:49:00,
2013-03-08 04:54:00,20.0,17.0,31.88,NNW,337,0.0,0.0,88,0.00,,,0.00,Weather View 32 v70,2013-03-08 09:54:00,
2013-03-08 04:59:00,20.0,16.8,31.88,NNW,337,0.0,0.0,87,0.00,,,0.00,Weather View 32 v70,2013-03-08 09:59:00,
2013-03-08 05:04:00,20.0,17.0,31.88,NNW,337,0.0,0.0,88,0.00,,,0.00,Weather View 32 v70,2013-03-08 10:04:00,
2013-03-08 05:09:00,19.0,16.0,31.88,NNW,337,0.0,0.0,88,0.00,,,0.00,Weather View 32 v70,2013-03-08 10:09:00,
2013-03-08 05:14:00,19.0,16.3,31.89,NNW,337,0.0,0.0,89,0.00,,,0.00,Weather View 32 v70,2013-03-08 10:14:00,
2013-03-08 05:19:00,19.0,16.0,31.89,NNW,337,0.0,0.0,88,0.00,,,0.00,Weather View 32 v70,2013-03-08 10:19:00,
2013-03-08 05:24:00,19.0,16.3,31.89,NNW,337,0.0,0.0,89,0.00,,,0.00,Weather View 32 v70,2013-03-08 10:24:00,
2013-03-08 05:29:00,19.0,16.0,31.89,NNW,337,0.0,0.0,88,0.00,,,0.00,Weather View 32 v70,2013-03-08 10:29:00,
2013-03-08 05:35:00,20.0,17.0,31.89,NNW,337,0.0,0.0,88,0.00,,,0.00,Weather View 32 v70,2013-03-08 10:35:00,
2013-03-08 05:40:00,20.0,16.8,31.89,NNW,337,0.0,0.0,87,0.00,,,0.00,Weather View 32 v70,2013-03-08 10:40:00,
2013-03-08 05:45:00,20.0,17.0,31.89,NNW,337,0.0,0.0,88,0.00,,,0.00,Weather View 32 v70,2013-03-08 10:45:00,
2013-03-08 05:50:00,20.0,16.8,31.89,NNW,337,0.0,0.0,87,0.00,,,0.00,Weather View 32 v70,2013-03-08 10:50:00,
2013-03-08 05:55:00,20.0,17.0,31.90,NNW,337,0.0,0.0,88,0.00,,,0.00,Weather View 32 v70,2013-03-08 10:55:00,
2013-03-08 06:00:00,19.0,16.0,31.90,NNW,337,0.0,0.0,88,0.00,,,0.00,Weather View 32 v70,2013-03-08 11:00:00,
2013-03-08 06:05:00,19.0,16.3,31.90,NNW,337,0.0,0.0,89,0.00,,,0.00,Weather View 32 v70,2013-03-08 11:05:00,
2013-03-08 06:10:00,19.0,16.0,31.90,NNW,337,0.0,0.0,88,0.00,,,0.00,Weather View 32 v70,2013-03-08 11:10:00,
2013-03-08 06:15:00,19.0,16.3,31.90,NNW,337,0.0,0.0,89,0.00,,,0.00,Weather View 32 v70,2013-03-08 11:15:00,
2013-03-08 06:20:00,19.0,16.3,31.90,NNW,337,0.0,0.0,89,0.00,,,0.00,Weather View 32 v70,2013-03-08 11:20:00,
2013-03-08 06:25:00,19.0,16.3,31.90,NNW,337,0.0,0.0,89,0.00,,,0.00,Weather View 32 v70,2013-03-08 11:25:00,
2013-03-08 06:30:00,19.0,16.3,31.90,NNW,337,0.0,0.0,89,0.00,,,0.00,Weather View 32 v70,2013-03-08 11:30:00,
2013-03-08 06:35:00,19.0,16.3,31.90,NNW,337,0.0,0.0,89,0.00,,,0.00,Weather View 32 v70,2013-03-08 11:35:00,
2013-03-08 06:40:00,19.0,16.3,31.90,NNW,337,0.0,0.0,89,0.00,,,0.00,Weather View 32 v70,2013-03-08 11:40:00,
2013-03-08 06:45:00,19.0,16.3,31.90,NNW,337,0.0,0.0,89,0.00,,,0.00,Weather View 32 v70,2013-03-08 11:45:00,
2013-03-08 06:50:00,19.0,16.3,31.90,NNW,337,0.0,0.0,89,0.00,,,0.00,Weather View 32 v70,2013-03-08 11:50:00,
2013-03-08 06:55:00,19.0,16.3,31.90,NNW,337,0.0,0.0,89,0.00,,,0.00,Weather View 32 v70,2013-03-08 11:55:00,
2013-03-08 07:00:00,18.0,15.3,31.90,NNW,337,0.0,0.0,89,0.00,,,0.00,Weather View 32 v70,2013-03-08 12:00:00,
2013-03-08 07:05:00,18.0,15.3,31.90,NNW,337,0.0,0.0,89,0.00,,,0.00,Weather View 32 v70,2013-03-08 12:05:00,
2013-03-08 07:10:00,18.0,15.3,31.90,NNW,337,0.0,0.0,89,0.00,,,0.00,Weather View 32 v70,2013-03-08 12:10:00,
2013-03-08 07:15:00,18.0,15.3,31.90,NNW,337,0.0,0.0,89,0.00,,,0.00,Weather View 32 v70,2013-03-08 12:15:00,
2013-03-08 07:20:00,18.0,15.3,31.90,NNW,337,0.0,0.0,89,0.00,,,0.00,Weather View 32 v70,2013-03-08 12:20:00,
2013-03-08 07:25:00,19.0,16.0,31.90,NNW,337,0.0,0.0,88,0.00,,,0.00,Weather View 32 v70,2013-03-08 12:25:00,
2013-03-08 07:30:00,19.0,15.8,31.90,NNW,337,0.0,0.0,87,0.00,,,0.00,Weather View 32 v70,2013-03-08 12:30:00,
2013-03-08 07:35:00,20.0,16.2,31.92,NNW,337,0.0,0.0,85,0.00,,,0.00,Weather View 32 v70,2013-03-08 12:35:00,
2013-03-08 07:40:00,21.0,18.8,31.92,East,90,0.0,3.0,91,0.00,,,0.00,Weather View 32 v70,2013-03-08 12:40:00,
2013-03-08 07:45:00,22.0,22.0,31.95,East,90,0.0,3.0,100,0.00,,,0.00,Weather View 32 v70,2013-03-08 12:45:00,
2013-03-08 07:50:00,23.0,23.0,31.95,East,90,0.0,3.0,100,0.00,,,0.00,Weather View 32 v70,2013-03-08 12:50:00,
2013-03-08 07:55:00,23.0,23.0,31.95,East,90,0.0,3.0,100,0.00,,,0.00,Weather View 32 v70,2013-03-08 12:55:00,
2013-03-08 08:00:00,24.0,24.0,31.95,East,90,0.0,3.0,100,0.00,,,0.00,Weather View 32 v70,2013-03-08 13:00:00,
2013-03-08 08:05:00,25.0,25.0,29.93,East,90,0.0,3.0,100,0.00,,,0.00,Weather View 32 v70,2013-03-08 13:05:00,
2013-03-08 08:10:00,25.0,25.0,29.93,East,90,0.0,3.0,100,0.00,,,0.00,Weather View 32 v70,2013-03-08 13:10:00,
2013-03-08 08:15:00,26.0,26.0,29.93,ENE,67,0.0,3.0,100,0.00,,,0.00,Weather View 32 v70,2013-03-08 13:15:00,
2013-03-08 08:20:00,26.0,26.0,29.93,ENE,67,0.0,3.0,100,0.00,,,0.00,Weather View 32 v70,2013-03-08 13:20:00,
2013-03-08 08:25:00,27.0,27.0,29.94,ENE,67,0.0,3.0,100,0.00,,,0.00,Weather View 32 v70,2013-03-08 13:25:00,
2013-03-08 08:30:00,27.0,27.0,29.94,ENE,67,0.0,3.0,100,0.00,,,0.00,Weather View 32 v70,2013-03-08 13:30:00,
2013-03-08 08:35:00,29.0,29.0,29.94,ENE,67,0.0,3.0,100,0.00,,,0.00,Weather View 32 v70,2013-03-08 13:35:00,
2013-03-08 08:40:00,29.0,29.0,29.94,ENE,67,0.0,0.0,100,0.00,,,0.00,Weather View 32 v70,2013-03-08 13:40:00,
2013-03-08 08:45:00,30.0,30.0,29.95,ENE,67,0.0,0.0,100,0.00,,,0.00,Weather View 32 v70,2013-03-08 13:45:00,
2013-03-08 08:50:00,31.0,31.0,29.95,ENE,67,0.0,0.0,100,0.00,,,0.00,Weather View 32 v70,2013-03-08 13:50:00,
2013-03-08 08:55:00,33.0,33.0,29.96,ENE,67,0.0,0.0,100,0.00,,,0.00,Weather View 32 v70,2013-03-08 13:55:00,
2013-03-08 09:00:00,34.0,34.0,29.96,ENE,67,0.0,0.0,100,0.00,,,0.00,Weather View 32 v70,2013-03-08 14:00:00,
2013-03-08 09:05:00,34.0,34.0,29.96,ENE,67,0.0,0.0,100,0.00,,,0.00,Weather View 32 v70,2013-03-08 14:05:00,
2013-03-08 09:10:00,34.0,34.0,29.96,East,90,0.0,0.0,100,0.00,,,0.00,Weather View 32 v70,2013-03-08 14:10:00,
2013-03-08 09:15:00,33.0,32.7,29.97,East,90,0.0,3.0,99,0.00,,,0.00,Weather View 32 v70,2013-03-08 14:15:00,
2013-03-08 09:20:00,34.0,32.2,29.97,East,90,0.0,3.0,93,0.00,,,0.00,Weather View 32 v70,2013-03-08 14:20:00,
2013-03-08 09:25:00,35.0,31.2,29.97,ESE,112,0.0,3.0,86,0.00,,,0.00,Weather View 32 v70,2013-03-08 14:25:00,
2013-03-08 09:30:00,34.0,33.2,29.97,ESE,112,4.0,5.0,97,0.00,,,0.00,Weather View 32 v70,2013-03-08 14:30:00,
2013-03-08 09:35:00,34.0,32.5,29.97,ENE,67,3.0,6.0,94,0.00,,,0.00,Weather View 32 v70,2013-03-08 14:35:00,
2013-03-08 09:40:00,33.0,27.2,29.97,ESE,112,4.0,7.0,79,0.00,,,0.00,Weather View 32 v70,2013-03-08 14:40:00,
2013-03-08 09:45:00,33.0,26.3,29.97,ENE,67,3.0,7.0,76,0.00,,,0.00,Weather View 32 v70,2013-03-08 14:45:00,
2013-03-08 09:50:00,33.0,23.6,29.97,ENE,67,4.0,7.0,68,0.00,,,0.00,Weather View 32 v70,2013-03-08 14:50:00,
2013-03-08 09:55:00,33.0,22.5,29.97,ENE,67,6.0,8.0,65,0.00,,,0.00,Weather View 32 v70,2013-03-08 14:55:00,
2013-03-08 10:00:00,34.0,23.1,29.97,East,90,4.0,8.0,64,0.00,,,0.00,Weather View 32 v70,2013-03-08 15:00:00,
2013-03-08 10:05:00,34.0,23.1,29.97,ESE,112,7.0,9.0,64,0.00,,,0.00,Weather View 32 v70,2013-03-08 15:05:00,
2013-03-08 10:10:00,34.0,23.1,29.97,ENE,67,5.0,10.0,64,0.00,,,0.00,Weather View 32 v70,2013-03-08 15:10:00,
2013-03-08 10:15:00,35.0,24.0,29.97,SE,135,0.0,10.0,64,0.00,,,0.00,Weather View 32 v70,2013-03-08 15:15:00,
2013-03-08 10:20:00,34.0,22.3,29.97,ENE,67,7.0,10.0,62,0.00,,,0.00,Weather View 32 v70,2013-03-08 15:20:00,
2013-03-08 10:25:00,35.0,23.3,29.97,East,90,5.0,10.0,62,0.00,,,0.00,Weather View 32 v70,2013-03-08 15:25:00,
2013-03-08 10:30:00,35.0,22.9,29.97,SE,135,3.0,10.0,61,0.00,,,0.00,Weather View 32 v70,2013-03-08 15:30:00,
2013-03-08 10:35:00,36.0,23.4,29.97,SSE,157,6.0,10.0,60,0.00,,,0.00,Weather View 32 v70,2013-03-08 15:35:00,
2013-03-08 10:40:00,36.0,22.6,29.97,ESE,112,5.0,10.0,58,0.00,,,0.00,Weather View 32 v70,2013-03-08 15:40:00,
2013-03-08 10:45:00,35.0,22.1,29.97,ESE,112,6.0,10.0,59,0.00,,,0.00,Weather View 32 v70,2013-03-08 15:45:00,
2013-03-08 10:50:00,35.0,22.1,29.97,ENE,67,3.0,10.0,59,0.00,,,0.00,Weather View 32 v70,2013-03-08 15:50:00,
2013-03-08 10:55:00,36.0,23.4,29.97,SSE,157,0.0,10.0,60,0.00,,,0.00,Weather View 32 v70,2013-03-08 15:55:00,
2013-03-08 11:00:00,36.0,22.2,29.97,ESE,112,3.0,10.0,57,0.00,,,0.00,Weather View 32 v70,2013-03-08 16:00:00,
2013-03-08 11:05:00,37.0,22.3,29.97,ESE,112,0.0,10.0,55,0.00,,,0.00,Weather View 32 v70,2013-03-08 16:05:00,
2013-03-08 11:10:00,37.0,22.3,29.97,South,180,0.0,10.0,55,0.00,,,0.00,Weather View 32 v70,2013-03-08 16:10:00,
2013-03-08 11:15:00,37.0,21.4,29.97,East,90,4.0,10.0,53,0.00,,,0.00,Weather View 32 v70,2013-03-08 16:15:00,
2013-03-08 11:20:00,38.0,22.8,29.97,SSE,157,0.0,10.0,54,0.00,,,0.00,Weather View 32 v70,2013-03-08 16:20:00,
2013-03-08 11:25:00,37.0,21.0,29.97,East,90,4.0,10.0,52,0.00,,,0.00,Weather View 32 v70,2013-03-08 16:25:00,
2013-03-08 11:30:00,37.0,20.5,29.97,ESE,112,0.0,10.0,51,0.00,,,0.00,Weather View 32 v70,2013-03-08 16:30:00,
2013-03-08 11:35:00,37.0,20.5,29.96,East,90,4.0,10.0,51,0.00,,,0.00,Weather View 32 v70,2013-03-08 16:35:00,
2013-03-08 11:40:00,38.0,21.5,29.96,East,90,6.0,10.0,51,0.00,,,0.00,Weather View 32 v70,2013-03-08 16:40:00,
2013-03-08 11:45:00,37.0,20.5,29.96,ENE,67,4.0,10.0,51,0.00,,,0.00,Weather View 32 v70,2013-03-08 16:45:00,
2013-03-08 11:50:00,37.0,20.1,29.96,ENE,67,7.0,10.0,50,0.00,,,0.00,Weather View 32 v70,2013-03-08 16:50:00,
2013-03-08 11:55:00,37.0,20.1,29.96,NE,45,0.0,10.0,50,0.00,,,0.00,Weather View 32 v70,2013-03-08 16:55:00,
2013-03-08 12:00:00,37.0,20.5,29.96,ESE,112,9.0,10.0,51,0.00,,,0.00,Weather View 32 v70,2013-03-08 17:00:00,
2013-03-08 12:05:00,37.0,20.5,29.96,ENE,67,4.0,10.0,51,0.00,,,0.00,Weather View 32 v70,2013-03-08 17:05:00,
2013-03-08 12:10:00,37.0,20.5,29.96,East,90,2.0,10.0,51,0.00,,,0.00,Weather View 32 v70,2013-03-08 17:10:00,
2013-03-08 12:15:00,37.0,20.5,29.96,East,90,5.0,10.0,51,0.00,,,0.00,Weather View 32 v70,2013-03-08 17:15:00,
2013-03-08 12:20:00,36.0,18.7,29.96,ENE,67,7.0,10.0,49,0.00,,,0.00,Weather View 32 v70,2013-03-08 17:20:00,
2013-03-08 12:25:00,37.0,20.1,29.96,ENE,67,7.0,10.0,50,0.00,,,0.00,Weather View 32 v70,2013-03-08 17:25:00,
2013-03-08 12:30:00,38.0,19.5,29.96,NNE,22,0.0,10.0,47,0.00,,,0.00,Weather View 32 v70,2013-03-08 17:30:00,
2013-03-08 12:35:00,38.0,19.0,29.96,ENE,67,2.0,10.0,46,0.00,,,0.00,Weather View 32 v70,2013-03-08 17:35:00,
2013-03-08 12:40:00,39.0,19.4,29.96,ENE,67,4.0,10.0,45,0.00,,,0.00,Weather View 32 v70,2013-03-08 17:40:00,
2013-03-08 12:45:00,39.0,19.9,29.96,ENE,67,3.0,10.0,46,0.00,,,0.00,Weather View 32 v70,2013-03-08 17:45:00,
2013-03-08 12:50:00,39.0,19.9,29.96,East,90,5.0,10.0,46,0.00,,,0.00,Weather View 32 v70,2013-03-08 17:50:00,
2013-03-08 12:55:00,39.0,19.4,29.96,East,90,3.0,10.0,45,0.00,,,0.00,Weather View 32 v70,2013-03-08 17:55:00,
2013-03-08 13:00:00,39.0,18.9,29.96,ENE,67,0.0,10.0,44,0.00,,,0.00,Weather View 32 v70,2013-03-08 18:00:00,
2013-03-08 13:05:00,39.0,18.9,29.96,East,90,3.0,10.0,44,0.00,,,0.00,Weather View 32 v70,2013-03-08 18:05:00,
2013-03-08 13:10:00,39.0,18.9,29.96,East,90,4.0,10.0,44,0.00,,,0.00,Weather View 32 v70,2013-03-08 18:10:00,
2013-03-08 13:15:00,39.0,18.9,29.96,East,90,0.0,10.0,44,0.00,,,0.00,Weather View 32 v70,2013-03-08 18:15:00,
2013-03-08 13:20:00,39.0,19.9,29.96,East,90,3.0,10.0,46,0.00,,,0.00,Weather View 32 v70,2013-03-08 18:20:00,
2013-03-08 13:25:00,41.0,22.8,29.95,NNW,337,0.0,9.0,48,0.00,,,0.00,Weather View 32 v70,2013-03-08 18:25:00,
2013-03-08 13:30:00,40.0,19.3,29.95,North,360,3.0,10.0,43,0.00,,,0.00,Weather View 32 v70,2013-03-08 18:30:00,
2013-03-08 13:35:00,40.0,19.3,29.95,NNE,22,0.0,10.0,43,0.00,,,0.00,Weather View 32 v70,2013-03-08 18:35:00,
2013-03-08 13:40:00,42.0,18.8,29.95,SSW,202,0.0,10.0,39,0.00,,,0.00,Weather View 32 v70,2013-03-08 18:40:00,
2013-03-08 13:45:00,43.0,23.6,29.95,SE,135,0.0,10.0,46,0.00,,,0.00,Weather View 32 v70,2013-03-08 18:45:00,
2013-03-08 13:50:00,43.0,19.7,29.95,SW,225,0.0,10.0,39,0.00,,,0.00,Weather View 32 v70,2013-03-08 18:50:00,
2013-03-08 13:55:00,43.0,23.6,29.95,ESE,112,0.0,10.0,46,0.00,,,0.00,Weather View 32 v70,2013-03-08 18:55:00,
2013-03-08 14:00:00,44.0,25.0,29.95,SE,135,0.0,10.0,47,0.00,,,0.00,Weather View 32 v70,2013-03-08 19:00:00,
2013-03-08 14:05:00,41.0,19.6,29.95,East,90,5.0,10.0,42,0.00,,,0.00,Weather View 32 v70,2013-03-08 19:05:00,
2013-03-08 14:10:00,42.0,21.1,29.95,SW,225,0.0,10.0,43,0.00,,,0.00,Weather View 32 v70,2013-03-08 19:10:00,
2013-03-08 14:15:00,44.0,21.2,29.94,South,180,0.0,10.0,40,0.00,,,0.00,Weather View 32 v70,2013-03-08 19:15:00,
2013-03-08 14:20:00,42.0,20.0,29.94,East,90,3.0,10.0,41,0.00,,,0.00,Weather View 32 v70,2013-03-08 19:20:00,
2013-03-08 14:25:00,42.0,20.0,29.94,ESE,112,3.0,10.0,41,0.00,,,0.00,Weather View 32 v70,2013-03-08 19:25:00,
2013-03-08 14:30:00,41.0,19.6,29.94,ESE,112,0.0,9.0,42,0.00,,,0.00,Weather View 32 v70,2013-03-08 19:30:00,
2013-03-08 14:35:00,41.0,20.7,29.94,SE,135,2.0,9.0,44,0.00,,,0.00,Weather View 32 v70,2013-03-08 19:35:00,
2013-03-08 14:40:00,43.0,22.0,29.94,SSW,202,0.0,9.0,43,0.00,,,0.00,Weather View 32 v70,2013-03-08 19:40:00,
2013-03-08 14:45:00,44.0,21.2,29.93,South,180,0.0,9.0,40,0.00,,,0.00,Weather View 32 v70,2013-03-08 19:45:00,
2013-03-08 14:50:00,44.0,22.3,29.93,SSE,157,0.0,9.0,42,0.00,,,0.00,Weather View 32 v70,2013-03-08 19:50:00,
2013-03-08 14:55:00,44.0,21.8,29.93,ESE,112,5.0,9.0,41,0.00,,,0.00,Weather View 32 v70,2013-03-08 19:55:00,
2013-03-08 15:00:00,43.0,20.9,29.93,SE,135,2.0,9.0,41,0.00,,,0.00,Weather View 32 v70,2013-03-08 20:00:00,
2013-03-08 15:05:00,43.0,22.0,29.92,SSE,157,0.0,9.0,43,0.00,,,0.00,Weather View 32 v70,2013-03-08 20:05:00,
2013-03-08 15:10:00,43.0,20.3,29.92,ESE,112,5.0,9.0,40,0.00,,,0.00,Weather View 32 v70,2013-03-08 20:10:00,
2013-03-08 15:15:00,41.0,19.6,29.92,ESE,112,6.0,9.0,42,0.00,,,0.00,Weather View 32 v70,2013-03-08 20:15:00,
2013-03-08 15:20:00,40.0,19.8,29.92,East,90,5.0,9.0,44,0.00,,,0.00,Weather View 32 v70,2013-03-08 20:20:00,
2013-03-08 15:25:00,41.0,21.3,29.92,SSE,157,0.0,9.0,45,0.00,,,0.00,Weather View 32 v70,2013-03-08 20:25:00,
2013-03-08 15:30:00,40.0,19.8,29.92,East,90,6.0,10.0,44,0.00,,,0.00,Weather View 32 v70,2013-03-08 20:30:00,
2013-03-08 15:35:00,40.0,20.3,29.92,South,180,0.0,10.0,45,0.00,,,0.00,Weather View 32 v70,2013-03-08 20:35:00,
2013-03-08 15:40:00,40.0,20.9,29.92,ENE,67,4.0,10.0,46,0.00,,,0.00,Weather View 32 v70,2013-03-08 20:40:00,
2013-03-08 15:45:00,40.0,20.3,29.92,ESE,112,0.0,10.0,45,0.00,,,0.00,Weather View 32 v70,2013-03-08 20:45:00,
2013-03-08 15:50:00,41.0,21.8,29.92,ESE,112,3.0,10.0,46,0.00,,,0.00,Weather View 32 v70,2013-03-08 20:50:00,
2013-03-08 15:55:00,42.0,21.1,29.91,South,180,1.0,10.0,43,0.00,,,0.00,Weather View 32 v70,2013-03-08 20:55:00,
2013-03-08 16:00:00,42.0,20.5,29.91,East,90,3.0,10.0,42,0.00,,,0.00,Weather View 32 v70,2013-03-08 21:00:00,
2013-03-08 16:05:00,42.0,20.5,29.91,South,180,0.0,10.0,42,0.00,,,0.00,Weather View 32 v70,2013-03-08 21:05:00,
2013-03-08 16:10:00,42.0,21.6,29.91,ESE,112,0.0,10.0,44,0.00,,,0.00,Weather View 32 v70,2013-03-08 21:10:00,
2013-03-08 16:15:00,40.0,19.8,29.91,East,90,3.0,10.0,44,0.00,,,0.00,Weather View 32 v70,2013-03-08 21:15:00,
2013-03-08 16:20:00,41.0,21.3,29.91,ESE,112,0.0,10.0,45,0.00,,,0.00,Weather View 32 v70,2013-03-08 21:20:00,
2013-03-08 16:25:00,41.0,21.3,29.90,ESE,112,2.0,10.0,45,0.00,,,0.00,Weather View 32 v70,2013-03-08 21:25:00,
2013-03-08 16:30:00,41.0,20.2,29.90,SE,135,6.0,10.0,43,0.00,,,0.00,Weather View 32 v70,2013-03-08 21:30:00,
2013-03-08 16:35:00,41.0,21.3,29.89,ESE,112,7.0,10.0,45,0.00,,,0.00,Weather View 32 v70,2013-03-08 21:35:00,
2013-03-08 16:40:00,39.0,19.4,29.89,East,90,4.0,10.0,45,0.00,,,0.00,Weather View 32 v70,2013-03-08 21:40:00,
2013-03-08 16:45:00,40.0,20.9,29.89,SSE,157,5.0,10.0,46,0.00,,,0.00,Weather View 32 v70,2013-03-08 21:45:00,
2013-03-08 16:50:00,39.0,19.9,29.89,East,90,4.0,10.0,46,0.00,,,0.00,Weather View 32 v70,2013-03-08 21:50:00,
2013-03-08 16:55:00,38.0,19.5,29.89,ENE,67,8.0,10.0,47,0.00,,,0.00,Weather View 32 v70,2013-03-08 21:55:00,
2013-03-08 17:00:00,38.0,19.5,29.89,ENE,67,3.0,10.0,47,0.00,,,0.00,Weather View 32 v70,2013-03-08 22:00:00,
2013-03-08 17:05:00,38.0,19.5,29.89,SE,135,0.0,10.0,47,0.00,,,0.00,Weather View 32 v70,2013-03-08 22:05:00,
2013-03-08 17:10:00,38.0,19.5,29.89,East,90,4.0,10.0,47,0.00,,,0.00,Weather View 32 v70,2013-03-08 22:10:00,
2013-03-08 17:15:00,37.0,19.1,29.89,ENE,67,5.0,10.0,48,0.00,,,0.00,Weather View 32 v70,2013-03-08 22:15:00,
2013-03-08 17:20:00,38.0,20.5,29.89,ENE,67,4.0,10.0,49,0.00,,,0.00,Weather View 32 v70,2013-03-08 22:20:00,
2013-03-08 17:25:00,37.0,19.6,29.90,East,90,4.0,10.0,49,0.00,,,0.00,Weather View 32 v70,2013-03-08 22:25:00,
2013-03-08 17:30:00,37.0,19.6,29.90,East,90,0.0,10.0,49,0.00,,,0.00,Weather View 32 v70,2013-03-08 22:30:00,
2013-03-08 17:35:00,37.0,20.1,29.90,East,90,8.0,10.0,50,0.00,,,0.00,Weather View 32 v70,2013-03-08 22:35:00,
2013-03-08 17:40:00,36.0,19.1,29.90,East,90,3.0,10.0,50,0.00,,,0.00,Weather View 32 v70,2013-03-08 22:40:00,
2013-03-08 17:45:00,36.0,19.1,29.89,East,90,0.0,10.0,50,0.00,,,0.00,Weather View 32 v70,2013-03-08 22:45:00,
2013-03-08 17:50:00,36.0,19.6,29.89,NE,45,2.0,10.0,51,0.00,,,0.00,Weather View 32 v70,2013-03-08 22:50:00,
2013-03-08 17:55:00,36.0,19.6,29.89,East,90,4.0,10.0,51,0.00,,,0.00,Weather View 32 v70,2013-03-08 22:55:00,
2013-03-08 18:00:00,36.0,20.1,29.89,East,90,4.0,10.0,52,0.00,,,0.00,Weather View 32 v70,2013-03-08 23:00:00,
2013-03-08 18:05:00,36.0,20.1,29.89,ENE,67,6.0,10.0,52,0.00,,,0.00,Weather View 32 v70,2013-03-08 23:05:00,
2013-03-08 18:10:00,36.0,20.5,29.89,ENE,67,7.0,10.0,53,0.00,,,0.00,Weather View 32 v70,2013-03-08 23:10:00,
2013-03-08 18:15:00,35.0,19.6,29.89,ENE,67,0.0,10.0,53,0.00,,,0.00,Weather View 32 v70,2013-03-08 23:15:00,
2013-03-08 18:20:00,35.0,20.0,29.89,East,90,7.0,10.0,54,0.00,,,0.00,Weather View 32 v70,2013-03-08 23:20:00,
2013-03-08 18:25:00,35.0,20.0,29.89,East,90,2.0,10.0,54,0.00,,,0.00,Weather View 32 v70,2013-03-08 23:25:00,
2013-03-08 18:30:00,35.0,20.5,29.89,ENE,67,3.0,10.0,55,0.00,,,0.00,Weather View 32 v70,2013-03-08 23:30:00,
2013-03-08 18:35:00,34.0,19.9,29.89,East,90,3.0,10.0,56,0.00,,,0.00,Weather View 32 v70,2013-03-08 23:35:00,
2013-03-08 18:40:00,34.0,19.9,29.89,East,90,0.0,10.0,56,0.00,,,0.00,Weather View 32 v70,2013-03-08 23:40:00,
2013-03-08 18:45:00,33.0,19.4,29.89,ENE,67,0.0,10.0,57,0.00,,,0.00,Weather View 32 v70,2013-03-08 23:45:00,
2013-03-08 18:50:00,33.0,19.8,29.89,ENE,67,0.0,10.0,58,0.00,,,0.00,Weather View 32 v70,2013-03-08 23:50:00,
2013-03-08 18:55:00,33.0,19.8,29.89,ENE,67,3.0,10.0,58,0.00,,,0.00,Weather View 32 v70,2013-03-08 23:55:00,
2013-03-08 19:00:00,33.0,19.8,29.89,East,90,3.0,10.0,58,0.00,,,0.00,Weather View 32 v70,2013-03-09 00:00:00,
2013-03-08 19:05:00,33.0,19.8,29.89,ENE,67,5.0,10.0,58,0.00,,,0.00,Weather View 32 v70,2013-03-09 00:05:00,
2013-03-08 19:10:00,32.0,19.3,29.89,ENE,67,0.0,10.0,59,0.00,,,0.00,Weather View 32 v70,2013-03-09 00:10:00,
2013-03-08 19:15:00,32.0,19.3,29.89,East,90,0.0,7.0,59,0.00,,,0.00,Weather View 32 v70,2013-03-09 00:15:00,
2013-03-08 19:20:00,32.0,19.7,29.89,ENE,67,0.0,7.0,60,0.00,,,0.00,Weather View 32 v70,2013-03-09 00:20:00,
2013-03-08 19:25:00,32.0,19.7,29.89,ENE,67,0.0,7.0,60,0.00,,,0.00,Weather View 32 v70,2013-03-09 00:25:00,
2013-03-08 19:30:00,32.0,19.7,29.89,ENE,67,0.0,7.0,60,0.00,,,0.00,Weather View 32 v70,2013-03-09 00:30:00,
2013-03-08 19:35:00,32.0,20.1,29.89,ENE,67,0.0,6.0,61,0.00,,,0.00,Weather View 32 v70,2013-03-09 00:35:00,
2013-03-08 19:40:00,31.0,19.5,29.89,ENE,67,0.0,6.0,62,0.00,,,0.00,Weather View 32 v70,2013-03-09 00:40:00,
2013-03-08 19:45:00,31.0,19.5,29.89,ENE,67,0.0,6.0,62,0.00,,,0.00,Weather View 32 v70,2013-03-09 00:45:00,
2013-03-08 19:50:00,31.0,19.9,29.89,ENE,67,0.0,6.0,63,0.00,,,0.00,Weather View 32 v70,2013-03-09 00:50:00,
2013-03-08 19:55:00,31.0,20.6,29.89,East,90,0.0,6.0,65,0.00,,,0.00,Weather View 32 v70,2013-03-09 00:55:00,
2013-03-08 20:00:00,31.0,20.6,29.89,East,90,0.0,6.0,65,0.00,,,0.00,Weather View 32 v70,2013-03-09 01:00:00,
2013-03-08 20:05:00,31.0,21.0,29.89,ESE,112,0.0,6.0,66,0.00,,,0.00,Weather View 32 v70,2013-03-09 01:05:00,
2013-03-08 20:10:00,30.0,20.4,29.89,East,90,0.0,6.0,67,0.00,,,0.00,Weather View 32 v70,2013-03-09 01:10:00,
2013-03-08 20:15:00,30.0,20.4,29.89,ENE,67,0.0,3.0,67,0.00,,,0.00,Weather View 32 v70,2013-03-09 01:15:00,
2013-03-08 20:20:00,30.0,20.4,29.89,ENE,67,0.0,3.0,67,0.00,,,0.00,Weather View 32 v70,2013-03-09 01:20:00,
2013-03-08 20:25:00,30.0,20.4,29.89,ENE,67,0.0,3.0,67,0.00,,,0.00,Weather View 32 v70,2013-03-09 01:25:00,
2013-03-08 20:30:00,30.0,20.7,29.89,ENE,67,0.0,3.0,68,0.00,,,0.00,Weather View 32 v70,2013-03-09 01:30:00,
2013-03-08 20:35:00,30.0,21.1,29.89,ENE,67,0.0,3.0,69,0.00,,,0.00,Weather View 32 v70,2013-03-09 01:35:00,
2013-03-08 20:40:00,29.0,20.4,29.89,East,90,0.0,3.0,70,0.00,,,0.00,Weather View 32 v70,2013-03-09 01:40:00,
2013-03-08 20:45:00,29.0,20.8,29.89,East,90,0.0,3.0,71,0.00,,,0.00,Weather View 32 v70,2013-03-09 01:45:00,
2013-03-08 20:50:00,29.0,21.1,29.89,East,90,0.0,3.0,72,0.00,,,0.00,Weather View 32 v70,2013-03-09 01:50:00,
2013-03-08 20:55:00,29.0,21.4,29.89,ESE,112,0.0,3.0,73,0.00,,,0.00,Weather View 32 v70,2013-03-09 01:55:00,
2013-03-08 21:00:00,30.0,22.4,29.89,ESE,112,0.0,3.0,73,0.00,,,0.00,Weather View 32 v70,2013-03-09 02:00:00,
2013-03-08 21:05:00,30.0,22.4,29.89,East,90,0.0,3.0,73,0.00,,,0.00,Weather View 32 v70,2013-03-09 02:05:00,
2013-03-08 21:10:00,29.0,21.8,29.89,East,90,0.0,3.0,74,0.00,,,0.00,Weather View 32 v70,2013-03-09 02:10:00,
2013-03-08 21:15:00,29.0,21.8,29.89,East,90,0.0,3.0,74,0.00,,,0.00,Weather View 32 v70,2013-03-09 02:15:00,
2013-03-08 21:20:00,29.0,22.1,29.89,East,90,0.0,3.0,75,0.00,,,0.00,Weather View 32 v70,2013-03-09 02:20:00,
2013-03-08 21:25:00,29.0,22.7,29.89,East,90,0.0,3.0,77,0.00,,,0.00,Weather View 32 v70,2013-03-09 02:25:00,
2013-03-08 21:30:00,29.0,22.7,29.89,ENE,67,2.0,3.0,77,0.00,,,0.00,Weather View 32 v70,2013-03-09 02:30:00,
2013-03-08 21:35:00,29.0,22.7,29.88,ENE,67,2.0,3.0,77,0.00,,,0.00,Weather View 32 v70,2013-03-09 02:35:00,
2013-03-08 21:40:00,29.0,22.7,29.88,ENE,67,1.0,4.0,77,0.00,,,0.00,Weather View 32 v70,2013-03-09 02:40:00,
2013-03-08 21:45:00,29.0,23.0,29.87,ENE,67,0.0,4.0,78,0.00,,,0.00,Weather View 32 v70,2013-03-09 02:45:00,
2013-03-08 21:50:00,29.0,23.0,29.87,East,90,1.0,4.0,78,0.00,,,0.00,Weather View 32 v70,2013-03-09 02:50:00,
2013-03-08 21:55:00,29.0,23.0,29.87,East,90,0.0,4.0,78,0.00,,,0.00,Weather View 32 v70,2013-03-09 02:55:00,
2013-03-08 22:00:00,29.0,23.3,29.87,ENE,67,0.0,4.0,79,0.00,,,0.00,Weather View 32 v70,2013-03-09 03:00:00,
2013-03-08 22:05:00,29.0,23.3,29.87,ESE,112,0.0,4.0,79,0.00,,,0.00,Weather View 32 v70,2013-03-09 03:05:00,
2013-03-08 22:10:00,29.0,23.3,29.87,ESE,112,0.0,5.0,79,0.00,,,0.00,Weather View 32 v70,2013-03-09 03:10:00,
2013-03-08 22:15:00,29.0,23.6,29.87,East,90,3.0,5.0,80,0.00,,,0.00,Weather View 32 v70,2013-03-09 03:15:00,
2013-03-08 22:20:00,29.0,23.3,29.87,ENE,67,3.0,6.0,79,0.00,,,0.00,Weather View 32 v70,2013-03-09 03:20:00,
2013-03-08 22:25:00,29.0,23.3,29.87,ENE,67,3.0,6.0,79,0.00,,,0.00,Weather View 32 v70,2013-03-09 03:25:00,
2013-03-08 22:30:00,30.0,24.3,29.87,ESE,112,0.0,6.0,79,0.00,,,0.00,Weather View 32 v70,2013-03-09 03:30:00,
2013-03-08 22:35:00,29.0,23.6,29.87,East,90,2.0,6.0,80,0.00,,,0.00,Weather View 32 v70,2013-03-09 03:35:00,
2013-03-08 22:40:00,30.0,24.6,29.87,ESE,112,2.0,6.0,80,0.00,,,0.00,Weather View 32 v70,2013-03-09 03:40:00,
2013-03-08 22:45:00,29.0,23.9,29.87,ESE,112,1.0,6.0,81,0.00,,,0.00,Weather View 32 v70,2013-03-09 03:45:00,
2013-03-08 22:50:00,30.0,24.6,29.87,ESE,112,3.0,6.0,80,0.00,,,0.00,Weather View 32 v70,2013-03-09 03:50:00,
2013-03-08 22:55:00,29.0,23.9,29.87,East,90,0.0,6.0,81,0.00,,,0.00,Weather View 32 v70,2013-03-09 03:55:00,
2013-03-08 23:00:00,30.0,24.9,29.87,East,90,3.0,6.0,81,0.00,,,0.00,Weather View 32 v70,2013-03-09 04:00:00,
2013-03-08 23:05:00,29.0,24.2,29.87,East,90,0.0,6.0,82,0.00,,,0.00,Weather View 32 v70,2013-03-09 04:05:00,
2013-03-08 23:10:00,29.0,23.9,29.87,East,90,2.0,6.0,81,0.00,,,0.00,Weather View 32 v70,2013-03-09 04:10:00,
2013-03-08 23:15:00,29.0,24.2,29.87,East,90,0.0,6.0,82,0.00,,,0.00,Weather View 32 v70,2013-03-09 04:15:00,
2013-03-08 23:20:00,29.0,24.2,29.87,ESE,112,0.0,6.0,82,0.00,,,0.00,Weather View 32 v70,2013-03-09 04:20:00,
2013-03-08 23:25:00,29.0,24.2,29.87,East,90,0.0,6.0,82,0.00,,,0.00,Weather View 32 v70,2013-03-09 04:25:00,
2013-03-08 23:30:00,29.0,24.5,29.88,ESE,112,0.0,6.0,83,0.00,,,0.00,Weather View 32 v70,2013-03-09 04:30:00,
2013-03-08 23:35:00,28.0,23.8,29.88,ESE,112,0.0,6.0,84,0.00,,,0.00,Weather View 32 v70,2013-03-09 04:35:00,
2013-03-08 23:40:00,28.0,24.1,29.87,East,90,0.0,6.0,85,0.00,,,0.00,Weather View 32 v70,2013-03-09 04:40:00,
2013-03-08 23:45:00,28.0,24.4,29.87,East,90,0.0,6.0,86,0.00,,,0.00,Weather View 32 v70,2013-03-09 04:45:00,
2013-03-08 23:50:00,28.0,24.4,29.87,ESE,112,0.0,6.0,86,0.00,,,0.00,Weather View 32 v70,2013-03-09 04:50:00,
2013-03-08 23:55:00,28.0,24.6,29.87,East,90,1.0,6.0,87,0.00,,,0.00,Weather View 32 v70,2013-03-09 04:55:00,